QPF
0.00 0.00 0.00 0.00 0.00 0.00 0.00 0.00 0.00 0.00 0.00 0.00 0.00 0.00 0.00 0.00 0.00 0.00 0.00 0.00 0.00 0.00 0.00 0.00 0.02 0.06 0.07 0.02 0.02 0.00 0.00 0.00 0.00 0.00 0.00 0.00 0.00 0.00 0.00 0.00 0.00 0.00 0.01 0.01 0.01 0.00 0.00 0.00 0.00
0.00 0.00 0.00 0.00 0.00 0.00 0.00 0.00 0.00 0.00 0.00 0.00 0.00 0.00 0.00 0.00 0.00 0.00 0.00 0.00 0.00 0.00 0.00 0.00 0.01 0.03 0.02 0.02 0.01 0.00 0.00 0.00 0.00 0.00 0.00 0.00 0.00 0.00 0.00 0.00 0.00 0.00 0.01 0.01 0.01 0.00 0.00 0.00 0.00
0.00 0.00 0.00 0.00 0.00 0.00 0.00 0.00 0.00 0.00 0.00 0.00 0.00 0.00 0.00 0.00 0.00 0.00 0.00 0.00 0.00 0.00 0.00 0.00 0.00 0.01 0.01 0.02 0.01 0.00 0.00 0.00 0.00 0.00 0.00 0.00 0.00 0.00 0.00 0.00 0.00 0.00 0.01 0.01 0.00 0.00 0.00 0.00 0.00
0.00 0.00 0.00 0.00 0.00 0.00 0.00 0.00 0.00 0.00 0.00 0.00 0.00 0.00 0.00 0.00 0.00 0.00 0.00 0.00 0.00 0.00 0.00 0.00 0.00 0.01 0.02 0.01 0.01 0.00 0.00 0.00 0.00 0.00 0.00 0.00 0.00 0.00 0.00 0.00 0.00 0.00 0.00 0.00 0.00 0.00 0.00 0.00 0.00
0.00 0.00 0.00 0.00 0.00 0.00 0.00 0.00 0.00 0.00 0.00 0.00 0.00 0.00 0.00 0.00 0.00 0.00 0.00 0.00 0.00 0.00 0.00 0.00 0.00 0.01 0.02 0.01 0.01 0.01 0.00 0.00 0.00 0.00 0.00 0.00 0.00 0.00 0.00 0.00 0.00 0.00 0.00 0.00 0.00 0.00 0.00 0.00 0.00
0.00 0.00 0.00 0.00 0.00 0.00 0.00 0.00 0.00 0.00 0.00 0.00 0.00 0.00 0.00 0.00 0.00 0.00 0.00 0.00 0.00 0.00 0.00 0.00 0.00 0.00 0.04 0.06 0.04 0.03 0.01 0.00 0.00 0.00 0.00 0.00 0.00 0.00 0.00 0.00 0.00 0.00 0.00 0.00 0.00 0.00 0.00 0.00 0.00
0.00 0.00 0.00 0.00 0.00 0.00 0.00 0.00 0.00 0.00 0.00 0.00 0.00 0.00 0.00 0.00 0.00 0.00 0.00 0.00 0.00 0.00 0.00 0.00 0.00 0.00 0.00 0.01 0.06 0.03 0.02 0.00 0.00 0.00 0.00 0.00 0.00 0.00 0.00 0.00 0.00 0.00 0.00 0.00 0.00 0.00 0.00 0.00 0.00
0.00 0.00 0.00 0.00 0.00 0.00 0.00 0.00 0.00 0.00 0.00 0.00 0.00 0.00 0.00 0.00 0.00 0.00 0.00 0.00 0.00 0.00 0.00 0.00 0.00 0.00 0.00 0.01 0.01 0.00 0.01 0.00 0.00 0.00 0.00 0.00 0.00 0.00 0.00 0.00 0.00 0.00 0.00 0.00 0.00 0.00 0.00 0.00 0.00
0.00 0.00 0.00 0.00 0.00 0.00 0.00 0.00 0.00 0.00 0.00 0.00 0.00 0.00 0.00 0.00 0.00 0.00 0.00 0.00 0.00 0.00 0.00 0.00 0.00 0.00 0.00 0.00 0.00 0.00 0.00 0.00 0.00 0.00 0.00 0.00 0.00 0.00 0.00 0.00 0.00 0.00 0.00 0.00 0.00 0.00 0.00 0.00 0.00
0.00 0.00 0.00 0.00 0.00 0.00 0.00 0.00 0.00 0.00 0.00 0.00 0.00 0.00 0.00 0.00 0.00 0.00 0.00 0.00 0.00 0.00 0.00 0.00 0.00 0.00 0.01 0.01 0.00 0.01 0.01 0.02 0.01 0.00 0.00 0.00 0.00 0.00 0.00 0.00 0.00 0.00 0.00 0.00 0.00 0.00 0.00 0.00 0.00
0.00 0.00 0.00 0.00 0.00 0.00 0.00 0.00 0.00 0.00 0.00 0.00 0.00 0.00 0.00 0.00 0.00 0.00 0.00 0.00 0.00 0.00 0.00 0.00 0.00 0.00 0.01 0.01 0.01 0.01 0.03 0.03 0.04 0.02 0.00 0.00 0.00 0.00 0.00 0.00 0.00 0.00 0.00 0.00 0.00 0.00 0.00 0.00 0.00
0.00 0.00 0.00 0.00 0.00 0.00 0.00 0.00 0.00 0.00 0.00 0.00 0.00 0.00 0.00 0.00 0.00 0.00 0.00 0.00 0.00 0.00 0.00 0.00 0.00 0.00 0.00 0.01 0.00 0.00 0.01 0.02 0.02 0.03 0.03 0.00 0.00 0.00 0.00 0.00 0.00 0.00 0.00 0.00 0.00 0.00 0.00 0.00 0.00
0.00 0.00 0.00 0.00 0.00 0.00 0.00 0.00 0.00 0.00 0.00 0.00 0.00 0.00 0.00 0.00 0.00 0.00 0.00 0.00 0.00 0.00 0.00 0.00 0.00 0.00 0.00 0.00 0.00 0.01 0.01 0.03 0.02 0.01 0.01 0.00 0.00 0.00 0.00 0.00 0.00 0.00 0.00 0.00 0.00 0.00 0.00 0.00 0.00
0.00 0.00 0.00 0.00 0.00 0.00 0.00 0.00 0.00 0.00 0.00 0.00 0.00 0.00 0.00 0.00 0.00 0.00 0.00 0.00 0.00 0.00 0.00 0.00 0.00 0.00 0.00 0.00 0.00 0.00 0.01 0.02 0.04 0.06 0.03 0.01 0.00 0.00 0.00 0.00 0.00 0.00 0.00 0.00 0.00 0.00 0.00 0.00 0.00
0.00 0.00 0.00 0.00 0.00 0.00 0.00 0.00 0.00 0.00 0.00 0.00 0.00 0.00 0.00 0.00 0.00 0.00 0.00 0.00 0.00 0.00 0.00 0.00 0.00 0.00 0.00 0.00 0.00 0.00 0.00 0.00 0.01 0.03 0.04 0.03 0.03 0.00 0.00 0.00 0.00 0.00 0.00 0.00 0.00 0.00 0.00 0.00 0.00
0.00 0.00 0.00 0.00 0.00 0.00 0.00 0.00 0.00 0.00 0.00 0.00 0.00 0.00 0.00 0.00 0.00 0.00 0.00 0.00 0.00 0.00 0.00 0.00 0.00 0.00 0.00 0.00 0.00 0.00 0.00 0.00 0.00 0.01 0.02 0.03 0.02 0.00 0.00 0.00 0.00 0.00 0.00 0.00 0.00 0.00 0.00 0.00 0.00
0.00 0.00 0.00 0.00 0.00 0.00 0.00 0.00 0.00 0.00 0.00 0.00 0.00 0.00 0.00 0.00 0.00 0.00 0.00 0.00 0.00 0.00 0.00 0.00 0.00 0.00 0.00 0.00 0.00 0.00 0.00 0.00 0.00 0.00 0.00 0.01 0.02 0.01 0.01 0.00 0.00 0.00 0.00 0.00 0.00 0.00 0.00 0.00 0.00
0.00 0.00 0.00 0.00 0.00 0.00 0.00 0.00 0.00 0.00 0.00 0.00 0.00 0.00 0.00 0.00 0.00 0.00 0.00 0.00 0.00 0.00 0.00 0.00 0.00 0.00 0.00 0.00 0.00 0.00 0.00 0.00 0.00 0.00 0.00 0.00 0.01 0.01 0.01 0.00 0.01 0.01 0.00 0.00 0.00 0.00 0.00 0.00 0.00
0.00 0.00 0.00 0.00 0.00 0.00 0.00 0.00 0.00 0.00 0.00 0.00 0.00 0.00 0.00 0.00 0.00 0.00 0.00 0.00 0.00 0.00 0.00 0.00 0.00 0.00 0.00 0.00 0.00 0.00 0.00 0.00 0.00 0.00 0.00 0.00 0.00 0.01 0.01 0.00 0.01 0.01 0.00 0.00 0.00 0.00 0.00 0.00 0.00
0.00 0.00 0.00 0.00 0.00 0.00 0.00 0.00 0.00 0.00 0.00 0.00 0.00 0.00 0.00 0.00 0.00 0.00 0.00 0.00 0.00 0.00 0.00 0.00 0.00 0.00 0.00 0.00 0.00 0.00 0.00 0.00 0.00 0.00 0.00 0.00 0.00 0.00 0.01 0.00 0.00 0.00 0.00 0.00 0.00 0.00 0.00 0.00 0.00
0.00 0.00 0.00 0.00 0.00 0.00 0.00 0.00 0.00 0.00 0.00 0.00 0.00 0.00 0.00 0.00 0.00 0.00 0.00 0.00 0.00 0.00 0.00 0.00 0.00 0.00 0.00 0.00 0.00 0.00 0.00 0.00 0.00 0.00 0.00 0.00 0.00 0.00 0.00 0.01 0.00 0.00 0.00 0.00 0.00 0.00 0.00 0.00 0.00
0.00 0.00 0.00 0.00 0.00 0.00 0.00 0.00 0.00 0.00 0.00 0.00 0.00 0.00 0.00 0.00 0.00 0.00 0.00 0.00 0.00 0.00 0.00 0.00 0.00 0.00 0.00 0.00 0.00 0.00 0.00 0.00 0.00 0.00 0.00 0.00 0.00 0.00 0.00 0.00 0.01 0.01 0.00 0.00 0.00 0.00 0.00 0.00 0.00
0.00 0.00 0.00 0.00 0.00 0.00 0.00 0.00 0.00 0.00 0.00 0.00 0.00 0.00 0.00 0.00 0.00 0.00 0.00 0.00 0.00 0.00 0.00 0.00 0.00 0.00 0.00 0.00 0.00 0.00 0.00 0.00 0.00 0.00 0.00 0.00 0.00 0.00 0.00 0.00 0.00 0.00 0.00 0.00 0.00 0.00 0.00 0.00 0.00
0.00 0.00 0.00 0.00 0.00 0.00 0.00 0.00 0.00 0.00 0.00 0.00 0.00 0.00 0.00 0.00 0.00 0.00 0.00 0.00 0.00 0.00 0.00 0.00 0.00 0.00 0.00 0.00 0.00 0.00 0.00 0.00 0.00 0.00 0.00 0.00 0.00 0.00 0.00 0.00 0.00 0.00 0.00 0.00 0.00 0.00 0.00 0.00 0.00
0.00 0.00 0.00 0.00 0.00 0.00 0.00 0.00 0.00 0.00 0.00 0.00 0.00 0.00 0.00 0.00 0.00 0.00 0.00 0.00 0.00 0.00 0.00 0.00 0.00 0.00 0.00 0.00 0.00 0.00 0.00 0.00 0.00 0.00 0.00 0.00 0.00 0.00 0.00 0.00 0.00 0.00 0.00 0.00 0.00 0.00 0.00 0.00 0.00
0.00 0.00 0.00 0.00 0.00 0.00 0.00 0.00 0.00 0.00 0.00 0.00 0.00 0.00 0.00 0.00 0.00 0.00 0.00 0.00 0.00 0.00 0.00 0.00 0.00 0.00 0.00 0.00 0.00 0.00 0.00 0.00 0.00 0.00 0.00 0.00 0.00 0.00 0.00 0.00 0.00 0.00 0.00 0.00 0.00 0.00 0.00 0.00 0.00
0.00 0.00 0.00 0.00 0.00 0.00 0.00 0.00 0.00 0.00 0.00 0.00 0.00 0.00 0.00 0.00 0.00 0.00 0.00 0.00 0.00 0.00 0.00 0.00 0.00 0.00 0.00 0.00 0.00 0.00 0.00 0.00 0.00 0.00 0.00 0.00 0.00 0.00 0.00 0.00 0.00 0.00 0.00 0.00 0.00 0.00 0.00 0.00 0.00
0.00 0.00 0.00 0.00 0.00 0.00 0.00 0.00 0.00 0.00 0.00 0.00 0.00 0.00 0.00 0.00 0.00 0.00 0.00 0.00 0.00 0.00 0.00 0.00 0.00 0.00 0.00 0.00 0.00 0.00 0.00 0.00 0.00 0.00 0.00 0.00 0.00 0.00 0.00 0.00 0.00 0.00 0.00 0.00 0.00 0.00 0.00 0.00 0.00
0.00 0.00 0.00 0.00 0.00 0.00 0.00 0.00 0.00 0.00 0.00 0.00 0.00 0.00 0.00 0.00 0.00 0.00 0.00 0.00 0.00 0.00 0.00 0.00 0.00 0.00 0.00 0.00 0.00 0.00 0.00 0.00 0.00 0.00 0.00 0.00 0.00 0.00 0.00 0.00 0.00 0.00 0.00 0.00 0.00 0.00 0.00 0.00 0.00
0.00 0.00 0.00 0.00 0.00 0.00 0.00 0.00 0.00 0.00 0.00 0.00 0.00 0.00 0.00 0.00 0.00 0.00 0.00 0.00 0.00 0.00 0.00 0.00 0.00 0.00 0.00 0.00 0.00 0.00 0.00 0.00 0.00 0.00 0.00 0.00 0.00 0.00 0.00 0.00 0.00 0.00 0.00 0.00 0.00 0.00 0.00 0.00 0.00
MSLP
1012.57 1011.66 1011.23 1010.35 1009.53 1008.84 1008.57 1009.60 1010.44 1010.99 1011.46 1012.13 1012.32 1012.57 1012.69 1012.99 1013.27 1014.46 1015.59 1015.69 1015.98 1016.78 1017.47 1018.65 1019.27 1019.55 1019.73 1019.83 1019.98 1020.12 1020.17 1020.23 1020.44 1020.54 1020.52 1020.63 1020.84 1020.88 1020.84 1020.74 1020.58 1020.62 1020.62 1020.89 1021.28 1021.49 1021.55 1021.68 1021.56
1011.98 1011.67 1010.96 1009.56 1008.90 1008.04 1008.31 1009.58 1010.41 1011.00 1011.86 1012.55 1012.96 1013.21 1012.98 1013.26 1014.18 1015.02 1015.39 1016.01 1016.05 1016.73 1017.38 1018.29 1019.28 1019.52 1019.80 1019.99 1020.19 1020.33 1020.46 1020.60 1020.71 1020.75 1020.84 1021.07 1021.11 1021.26 1021.30 1021.15 1021.04 1021.00 1021.18 1021.40 1021.89 1022.04 1022.09 1022.16 1022.15
1012.34 1011.70 1010.18 1009.12 1008.75 1008.21 1008.77 1009.81 1010.18 1011.63 1012.40 1012.59 1012.81 1013.44 1013.38 1013.64 1014.55 1014.87 1015.07 1015.90 1016.19 1016.84 1017.37 1018.16 1019.17 1019.58 1019.94 1020.17 1020.38 1020.58 1020.74 1020.90 1020.97 1021.08 1021.25 1021.43 1021.59 1021.62 1021.60 1021.51 1021.54 1021.60 1021.78 1022.04 1022.46 1022.63 1022.52 1022.57 1022.66
1011.59 1011.01 1010.29 1009.23 1008.43 1008.89 1009.60 1010.01 1010.66 1011.89 1012.67 1012.94 1012.86 1012.91 1014.17 1014.74 1014.50 1014.92 1015.68 1015.81 1016.25 1016.86 1017.26 1018.68 1019.23 1019.66 1020.02 1020.24 1020.53 1020.79 1020.96 1021.15 1021.30 1021.39 1021.68 1021.77 1021.78 1021.98 1021.94 1021.88 1022.05 1022.14 1022.48 1022.72 1022.96 1023.11 1022.97 1023.15 1022.99
1011.58 1010.41 1009.35 1009.01 1008.93 1009.43 1010.08 1010.50 1011.08 1011.58 1012.03 1012.54 1013.08 1012.89 1013.72 1015.06 1015.39 1015.78 1015.89 1016.13 1016.32 1017.04 1017.47 1018.66 1019.34 1019.72 1020.03 1020.30 1020.57 1020.84 1021.02 1021.32 1021.57 1021.70 1021.86 1022.02 1022.17 1022.18 1022.31 1022.48 1022.54 1022.83 1023.20 1023.30 1023.47 1023.49 1023.60 1023.73 1023.54
1010.89 1010.20 1009.18 1008.69 1008.78 1009.68 1010.29 1010.86 1011.21 1011.52 1012.01 1012.66 1013.16 1013.13 1013.78 1014.87 1015.53 1015.77 1015.97 1016.14 1016.23 1017.01 1017.63 1018.50 1019.42 1019.78 1020.10 1020.42 1020.76 1020.99 1021.26 1021.60 1021.77 1022.01 1022.14 1022.30 1022.39 1022.54 1022.77 1022.92 1023.03 1023.33 1023.58 1023.82 1023.88 1023.95 1024.26 1024.22 1024.25
1010.94 1010.00 1009.11 1009.07 1009.26 1009.77 1010.13 1011.06 1011.26 1011.52 1011.96 1012.38 1012.88 1012.83 1013.81 1014.92 1015.30 1015.79 1016.11 1016.13 1016.21 1016.97 1017.78 1018.41 1019.07 1019.74 1020.20 1020.53 1020.84 1021.18 1021.40 1021.72 1021.97 1022.24 1022.41 1022.59 1022.74 1022.95 1023.19 1023.28 1023.38 1023.65 1023.94 1024.18 1024.31 1024.44 1024.64 1024.87 1024.74
1011.33 1010.32 1009.40 1009.46 1009.14 1009.70 1010.55 1011.15 1011.40 1011.55 1011.95 1013.03 1013.22 1012.70 1013.11 1014.28 1015.26 1015.78 1015.99 1016.03 1016.33 1017.02 1017.64 1018.10 1018.61 1019.29 1019.83 1020.46 1020.93 1021.25 1021.53 1021.85 1022.14 1022.49 1022.74 1022.97 1023.21 1023.47 1023.67 1023.73 1023.88 1024.03 1024.37 1024.62 1024.75 1024.82 1025.19 1025.34 1025.25
1011.88 1010.71 1009.58 1009.43 1009.65 1009.84 1010.91 1011.21 1011.93 1012.24 1012.35 1012.97 1013.29 1013.50 1014.17 1014.31 1015.50 1015.75 1015.96 1016.23 1016.72 1017.20 1017.59 1017.94 1018.48 1018.88 1019.36 1019.97 1020.78 1021.29 1021.56 1021.86 1022.22 1022.65 1022.97 1023.13 1023.25 1023.57 1023.57 1024.13 1024.33 1024.57 1024.82 1025.01 1025.16 1025.45 1025.80 1025.87 1025.86
1011.55 1010.63 1009.82 1009.93 1010.11 1010.44 1011.07 1011.25 1011.54 1012.33 1012.25 1012.51 1013.05 1013.93 1014.82 1015.04 1015.48 1015.58 1015.82 1016.18 1016.78 1017.10 1017.51 1017.82 1018.39 1018.76 1019.17 1019.61 1020.35 1020.74 1021.24 1021.65 1021.86 1022.19 1022.60 1022.48 1022.89 1023.40 1024.00 1024.68 1024.90 1025.03 1025.22 1025.47 1025.70 1025.98 1026.10 1025.88 1025.96
1011.28 1010.85 1010.47 1010.85 1011.47 1011.48 1011.45 1011.60 1011.87 1011.93 1011.49 1011.59 1011.82 1012.72 1014.38 1014.92 1015.22 1015.36 1015.58 1015.77 1016.15 1016.65 1017.33 1017.66 1018.18 1018.59 1018.94 1019.25 1019.88 1020.18 1020.69 1021.05 1021.39 1021.89 1022.11 1022.35 1023.03 1023.76 1024.19 1024.92 1025.23 1025.51 1025.60 1025.78 1026.02 1026.08 1026.02 1026.16 1026.27
1011.53 1011.52 1011.67 1011.93 1012.43 1012.26 1012.05 1011.83 1011.87 1011.93 1011.23 1011.60 1011.60 1011.90 1013.44 1014.23 1014.50 1014.70 1014.93 1015.20 1015.71 1016.17 1016.73 1017.56 1017.76 1018.32 1018.58 1019.03 1019.45 1019.74 1020.01 1020.57 1020.94 1021.49 1021.82 1022.44 1023.03 1023.38 1023.78 1024.14 1024.79 1025.07 1025.09 1025.44 1025.80 1026.25 1026.57 1026.81 1027.01
1011.76 1011.81 1012.28 1012.60 1012.97 1012.69 1012.88 1012.13 1011.80 1011.35 1011.45 1011.80 1012.34 1012.65 1012.86 1013.45 1013.78 1014.17 1014.38 1014.82 1015.20 1015.76 1016.19 1016.91 1017.46 1017.82 1018.36 1018.83 1018.98 1019.57 1019.37 1020.03 1020.24 1020.70 1021.43 1022.05 1022.77 1023.18 1023.63 1024.17 1024.82 1025.00 1025.13 1025.43 1025.85 1026.27 1026.76 1027.28 1027.53
1012.06 1012.29 1012.35 1012.74 1012.98 1012.95 1012.96 1012.13 1012.17 1010.92 1011.19 1011.26 1011.82 1012.34 1012.55 1012.78 1013.02 1013.46 1013.91 1014.15 1014.59 1015.19 1015.77 1016.48 1017.13 1017.82 1018.43 1018.36 1018.52 1019.08 1019.17 1019.58 1020.04 1020.38 1020.86 1021.34 1021.88 1022.60 1023.44 1024.13 1024.63 1024.90 1025.25 1025.72 1026.06 1026.45 1026.91 1027.48 1027.93
1012.62 1012.36 1012.33 1012.45 1012.86 1012.84 1013.01 1012.04 1010.98 1010.66 1011.16 1011.27 1011.35 1011.65 1011.84 1012.10 1012.54 1012.68 1013.02 1013.57 1014.00 1014.65 1015.47 1016.06 1016.78 1017.23 1017.57 1018.02 1018.18 1018.45 1018.79 1019.15 1019.41 1020.02 1020.52 1020.95 1021.44 1022.07 1022.91 1023.78 1024.03 1024.40 1025.12 1025.67 1026.52 1027.30 1027.76 1027.84 1028.41
1012.39 1012.28 1011.64 1011.76 1012.78 1013.09 1013.00 1010.94 1009.83 1010.21 1010.30 1010.70 1010.74 1010.66 1010.94 1011.30 1011.76 1012.14 1012.50 1013.12 1013.73 1014.31 1014.91 1015.68 1016.50 1016.97 1017.28 1017.60 1017.93 1018.29 1018.40 1018.61 1018.86 1019.18 1019.87 1020.44 1020.91 1021.59 1022.23 1023.04 1023.68 1024.55 1025.22 1026.01 1026.81 1027.26 1027.92 1028.02 1028.54
1012.06 1011.04 1011.21 1011.68 1012.50 1012.61 1012.58 1010.67 1009.94 1010.54 1010.66 1010.33 1010.09 1009.87 1009.87 1010.21 1010.83 1011.36 1011.85 1012.34 1012.98 1013.45 1014.26 1015.02 1015.91 1016.49 1016.94 1017.33 1017.59 1017.99 1018.24 1018.50 1018.60 1018.77 1019.26 1019.68 1020.31 1020.99 1021.66 1022.52 1023.54 1024.44 1025.20 1025.84 1026.61 1027.47 1027.67 1028.01 1028.57
1010.98 1011.21 1011.20 1011.70 1012.45 1012.67 1011.90 1010.79 1010.39 1010.01 1009.83 1009.72 1009.61 1009.20 1009.07 1009.35 1009.65 1010.23 1011.01 1011.64 1012.18 1012.81 1013.59 1014.41 1015.25 1015.97 1016.53 1017.07 1017.45 1017.69 1017.87 1018.35 1018.69 1018.72 1019.27 1019.81 1019.82 1020.49 1021.19 1022.28 1023.33 1024.10 1024.88 1025.79 1026.39 1027.20 1027.86 1028.29 1028.34
1011.80 1011.46 1011.33 1011.28 1012.53 1012.65 1011.40 1010.24 1009.62 1009.24 1008.78 1008.54 1008.42 1008.25 1008.27 1008.13 1008.37 1009.15 1009.80 1010.85 1011.64 1012.32 1013.01 1013.57 1014.41 1015.29 1015.96 1016.40 1016.86 1017.28 1017.48 1018.11 1019.02 1019.38 1019.50 1019.65 1019.92 1020.43 1021.07 1021.93 1022.79 1023.66 1024.35 1024.95 1025.60 1026.85 1027.86 1028.38 1028.54
1012.40 1012.01 1011.67 1011.61 1012.45 1012.94 1011.32 1009.68 1008.97 1008.59 1007.63 1007.63 1007.45 1007.06 1007.06 1006.96 1007.26 1007.90 1008.90 1009.83 1010.79 1011.44 1012.13 1012.94 1013.62 1014.50 1015.18 1015.75 1016.29 1016.80 1017.27 1017.72 1018.30 1019.19 1019.48 1019.58 1019.75 1020.19 1020.75 1021.31 1022.13 1022.87 1024.15 1025.18 1025.50 1026.19 1027.34 1028.21 1028.07
1012.48 1012.25 1012.03 1012.03 1012.79 1012.52 1011.69 1009.22 1007.65 1006.84 1006.73 1006.82 1006.61 1006.45 1006.42 1006.18 1006.30 1006.87 1007.81 1008.98 1010.03 1010.72 1011.32 1011.96 1012.65 1013.45 1014.31 1015.01 1015.74 1016.53 1017.21 1017.64 1018.22 1018.48 1019.06 1019.26 1019.50 1019.93 1020.34 1020.83 1021.55 1022.33 1023.35 1024.35 1024.52 1025.52 1025.84 1026.80 1027.61
1012.55 1012.32 1012.74 1012.70 1013.06 1011.97 1011.74 1008.37 1006.67 1006.22 1005.82 1005.68 1005.69 1005.70 1005.44 1005.51 1005.94 1006.53 1007.02 1007.73 1008.98 1009.90 1010.78 1011.40 1012.06 1012.73 1013.48 1014.28 1014.75 1015.13 1015.75 1016.39 1017.02 1017.69 1018.50 1019.01 1019.28 1019.77 1019.92 1020.39 1021.01 1021.66 1022.19 1023.51 1023.78 1024.40 1024.95 1025.61 1026.08
1013.26 1013.41 1013.40 1013.44 1013.21 1012.55 1011.36 1010.29 1006.22 1005.55 1005.00 1004.92 1004.75 1004.71 1004.87 1005.05 1005.46 1005.92 1006.65 1007.49 1008.13 1009.34 1010.29 1011.05 1011.75 1012.36 1012.96 1013.55 1014.02 1014.50 1015.05 1015.45 1015.72 1016.73 1017.87 1018.68 1019.25 1019.54 1019.73 1020.25 1020.50 1021.35 1021.72 1022.32 1023.30 1024.11 1024.39 1024.98 1025.32
1014.26 1014.21 1014.21 1014.04 1013.55 1011.97 1010.21 1009.29 1005.16 1004.86 1004.15 1004.04 1004.27 1004.32 1004.66 1004.94 1005.51 1006.16 1006.79 1007.41 1008.14 1009.07 1009.97 1010.74 1011.34 1011.90 1012.66 1013.36 1013.82 1014.02 1014.52 1014.92 1015.21 1016.12 1017.30 1018.07 1018.75 1019.52 1019.79 1020.20 1020.40 1020.77 1021.50 1022.11 1022.64 1023.34 1024.07 1024.35 1024.74
1014.49 1014.19 1013.84 1013.57 1013.09 1010.73 1010.10 1009.04 1004.97 1004.98 1004.65 1004.64 1004.51 1004.58 1004.75 1005.53 1005.92 1006.35 1007.03 1007.82 1008.39 1008.88 1009.62 1010.29 1010.84 1011.18 1011.82 1012.53 1013.35 1013.84 1014.20 1014.46 1014.66 1015.52 1016.42 1017.41 1018.24 1018.87 1019.36 1019.92 1020.46 1020.63 1021.04 1021.70 1022.21 1022.97 1023.63 1023.92 1024.18
1013.86 1013.32 1012.90 1012.17 1012.15 1010.96 1010.76 1007.95 1004.78 1004.77 1004.71 1004.89 1005.07 1005.05 1005.15 1005.66 1006.21 1006.70 1006.94 1007.52 1008.28 1009.11 1009.80 1010.26 1010.66 1010.88 1011.33 1011.77 1012.55 1013.46 1013.90 1014.15 1014.43 1015.11 1015.67 1016.21 1016.89 1017.73 1018.33 1019.18 1019.73 1020.05 1020.38 1020.87 1021.50 1022.20 1022.90 1023.30 1023.82
1013.65 1013.32 1012.65 1012.84 1012.69 1012.37 1009.68 1006.42 1004.95 1004.84 1005.18 1005.06 1004.91 1004.97 1005.01 1005.51 1005.79 1006.36 1006.75 1007.28 1008.21 1009.02 1009.52 1010.06 1010.58 1011.25 1011.46 1011.77 1012.14 1012.83 1013.31 1013.68 1013.94 1014.66 1015.28 1015.83 1015.94 1016.80 1017.54 1018.22 1018.93 1019.60 1020.04 1020.44 1020.92 1021.70 1022.45 1023.02 1023.30
1012.98 1012.82 1013.20 1013.14 1012.38 1011.29 1008.46 1006.78 1004.63 1004.57 1004.78 1004.80 1005.00 1005.12 1005.28 1005.74 1005.98 1006.30 1006.76 1007.26 1008.03 1008.77 1009.43 1010.00 1010.35 1010.84 1011.31 1011.52 1012.05 1012.39 1012.62 1013.06 1013.49 1014.11 1014.61 1015.35 1015.78 1016.38 1017.08 1017.85 1018.54 1019.21 1019.59 1020.19 1020.72 1021.37 1022.06 1022.53 1023.03
1013.22 1012.89 1012.52 1012.02 1011.61 1010.23 1008.90 1005.81 1004.47 1004.35 1004.62 1004.85 1005.24 1005.77 1005.97 1006.08 1006.30 1006.53 1007.11 1007.80 1008.30 1009.08 1009.46 1009.83 1010.18 1010.57 1011.04 1011.37 1011.78 1012.18 1012.36 1012.74 1013.16 1013.57 1014.11 1014.76 1015.27 1016.03 1016.94 1017.67 1018.41 1018.82 1019.26 1019.89 1020.59 1021.18 1021.77 1022.26 1022.95
1011.94 1011.37 1011.62 1011.34 1010.74 1010.74 1009.81 1006.11 1004.74 1004.91 1005.47 1005.68 1005.63 1005.77 1006.25 1006.81 1006.77 1007.05 1007.39 1008.18 1008.67 1009.02 1009.50 1009.59 1009.99 1010.40 1010.81 1011.19 1011.54 1011.62 1012.09 1012.46 1012.88 1013.16 1013.71 1014.45 1014.99 1015.66 1016.62 1017.55 1018.20 1018.71 1019.06 1019.47 1020.19 1020.80 1021.36 1021.82 1022.56
Thickness
5746 5753 5758 5756 5730 5734 5724 5722 5729 5718 5718 5726 5728 5720 5716 5717 5709 5694 5714 5716 5713 5706 5700 5691 5685 5682 5681 5681 5680 5680 5681 5681 5680 5681 5683 5683 5682 5683 5684 5686 5688 5689 5689 5687 5684 5682 5682 5681 5683
5750 5753 5755 5753 5727 5722 5730 5735 5721 5727 5727 5726 5722 5717 5717 5711 5717 5711 5712 5714 5714 5708 5702 5694 5687 5685 5683 5681 5680 5679 5679 5678 5678 5678 5679 5679 5679 5679 5680 5682 5684 5685 5683 5682 5677 5676 5677 5676 5676
5749 5754 5746 5741 5731 5724 5723 5732 5736 5728 5727 5725 5721 5722 5720 5714 5717 5717 5723 5717 5714 5708 5703 5697 5690 5686 5683 5681 5680 5678 5677 5676 5677 5677 5676 5676 5677 5677 5677 5679 5679 5679 5678 5676 5672 5671 5673 5673 5672
5750 5750 5750 5731 5730 5738 5732 5737 5738 5724 5722 5725 5727 5719 5720 5723 5723 5725 5721 5718 5715 5709 5705 5696 5691 5686 5684 5683 5680 5678 5677 5676 5676 5676 5673 5674 5675 5674 5675 5676 5675 5674 5671 5670 5668 5668 5670 5667 5669
5750 5748 5732 5728 5731 5738 5738 5740 5736 5727 5728 5726 5725 5722 5720 5720 5724 5722 5721 5718 5715 5710 5705 5696 5690 5688 5686 5683 5680 5678 5678 5676 5675 5674 5673 5672 5672 5672 5672 5671 5671 5668 5665 5665 5664 5664 5663 5662 5664
5735 5746 5726 5725 5735 5738 5739 5739 5736 5732 5731 5726 5720 5723 5722 5726 5721 5721 5721 5719 5717 5711 5706 5699 5693 5690 5687 5684 5681 5679 5677 5674 5674 5672 5671 5671 5671 5670 5668 5667 5666 5664 5662 5661 5660 5660 5656 5657 5656
5730 5733 5729 5732 5731 5731 5738 5741 5732 5732 5729 5727 5732 5721 5726 5721 5725 5723 5720 5721 5718 5712 5705 5700 5695 5690 5687 5685 5682 5678 5676 5674 5673 5670 5669 5668 5668 5666 5663 5663 5663 5661 5658 5657 5655 5655 5653 5649 5650
5737 5737 5730 5732 5733 5728 5739 5736 5739 5735 5730 5732 5733 5724 5725 5727 5727 5724 5722 5722 5719 5713 5707 5703 5699 5693 5688 5684 5681 5679 5676 5674 5672 5669 5667 5666 5664 5661 5659 5659 5658 5657 5654 5652 5651 5650 5647 5645 5645
5735 5723 5722 5730 5730 5736 5739 5731 5733 5737 5731 5727 5730 5729 5727 5733 5725 5721 5719 5717 5714 5711 5708 5704 5700 5696 5692 5687 5682 5678 5676 5674 5670 5667 5665 5663 5661 5658 5658 5656 5654 5652 5650 5648 5647 5645 5641 5641 5640
5726 5721 5729 5743 5744 5737 5736 5735 5734 5724 5726 5726 5726 5728 5723 5725 5721 5718 5716 5713 5710 5708 5707 5705 5700 5697 5693 5689 5684 5680 5676 5673 5671 5668 5665 5665 5662 5658 5654 5650 5648 5647 5646 5644 5641 5638 5637 5636 5635
5728 5718 5735 5735 5734 5735 5733 5730 5734 5725 5725 5735 5733 5734 5722 5720 5719 5719 5718 5717 5715 5713 5708 5706 5701 5697 5694 5691 5686 5683 5679 5676 5674 5669 5666 5664 5659 5655 5652 5647 5644 5642 5641 5639 5636 5634 5633 5631 5629
5713 5722 5722 5723 5722 5725 5724 5733 5725 5725 5735 5741 5745 5745 5730 5723 5722 5722 5721 5721 5718 5715 5712 5705 5703 5698 5695 5691 5687 5684 5682 5677 5674 5670 5667 5662 5658 5655 5652 5649 5644 5641 5640 5637 5633 5629 5626 5623 5621
5710 5717 5715 5717 5714 5721 5719 5723 5726 5730 5739 5740 5734 5732 5733 5728 5728 5727 5727 5725 5723 5716 5714 5709 5703 5700 5695 5690 5689 5684 5684 5679 5677 5673 5668 5663 5657 5653 5649 5646 5641 5638 5637 5634 5630 5626 5622 5617 5614
5712 5709 5712 5712 5713 5716 5712 5722 5719 5736 5741 5740 5736 5730 5732 5732 5732 5731 5728 5726 5724 5721 5715 5711 5705 5698 5693 5692 5689 5685 5683 5680 5677 5674 5670 5665 5661 5655 5648 5643 5638 5635 5632 5628 5625 5621 5618 5612 5607
5701 5697 5706 5709 5710 5712 5711 5712 5721 5738 5735 5731 5734 5735 5736 5735 5735 5733 5733 5729 5728 5723 5717 5711 5705 5700 5696 5692 5689 5687 5683 5680 5678 5673 5669 5665 5661 5656 5649 5642 5639 5635 5629 5624 5618 5612 5608 5606 5600
5693 5695 5694 5711 5703 5706 5705 5711 5738 5738 5738 5731 5735 5740 5739 5738 5737 5737 5737 5732 5729 5723 5718 5712 5704 5698 5695 5691 5687 5684 5683 5681 5678 5676 5671 5666 5661 5656 5651 5643 5637 5631 5625 5620 5612 5608 5601 5600 5594
5686 5691 5694 5700 5701 5702 5700 5713 5732 5727 5725 5728 5736 5742 5744 5743 5741 5739 5738 5736 5731 5728 5721 5714 5706 5699 5693 5688 5686 5682 5680 5678 5676 5675 5671 5667 5662 5656 5651 5644 5635 5628 5622 5616 5610 5601 5597 5593 5588
5683 5680 5691 5688 5690 5689 5698 5706 5717 5727 5730 5730 5735 5743 5746 5744 5743 5744 5740 5738 5735 5730 5723 5716 5708 5700 5693 5687 5682 5680 5678 5674 5671 5670 5666 5662 5660 5655 5650 5641 5633 5626 5620 5611 5605 5598 5591 5586 5584
5677 5680 5682 5697 5686 5681 5697 5708 5718 5726 5734 5737 5740 5744 5745 5749 5753 5750 5745 5738 5733 5728 5722 5717 5709 5701 5694 5687 5681 5677 5675 5671 5665 5661 5660 5659 5656 5651 5646 5639 5632 5624 5619 5612 5606 5595 5585 5579 5575
5665 5667 5675 5691 5681 5668 5690 5702 5718 5724 5736 5739 5742 5749 5751 5755 5755 5752 5746 5740 5733 5728 5724 5716 5709 5701 5694 5688 5682 5677 5672 5669 5664 5657 5655 5654 5651 5647 5642 5638 5631 5624 5613 5604 5600 5592 5582 5572 5572
5660 5661 5670 5675 5668 5672 5672 5693 5720 5735 5739 5740 5746 5751 5752 5754 5755 5754 5748 5740 5733 5728 5723 5717 5710 5702 5694 5687 5681 5673 5667 5663 5658 5657 5653 5651 5648 5643 5639 5634 5627 5620 5610 5602 5599 5590 5586 5575 5567
5650 5671 5661 5661 5651 5658 5670 5676 5717 5729 5734 5742 5746 5747 5753 5755 5754 5751 5749 5746 5734 5728 5722 5716 5709 5701 5694 5685 5681 5677 5671 5665 5662 5657 5650 5646 5643 5638 5635 5629 5622 5616 5610 5600 5596 5589 5583 5576 5570
5646 5646 5646 5645 5644 5648 5662 5649 5701 5730 5724 5737 5747 5751 5752 5754 5753 5751 5747 5741 5738 5726 5718 5712 5705 5698 5691 5685 5679 5675 5669 5667 5666 5658 5648 5641 5636 5632 5629 5623 5618 5610 5603 5598 5590 5582 5577 5571 5566
5633 5630 5629 5631 5635 5633 5669 5668 5697 5714 5732 5742 5746 5750 5751 5750 5746 5743 5740 5737 5730 5723 5714 5707 5700 5694 5686 5679 5674 5670 5665 5662 5661 5654 5643 5637 5631 5624 5621 5615 5609 5604 5597 5590 5585 5578 5570 5566 5561
5621 5621 5612 5613 5611 5637 5655 5654 5698 5709 5723 5727 5735 5737 5743 5736 5735 5733 5728 5722 5719 5716 5709 5703 5696 5691 5684 5677 5670 5664 5660 5657 5657 5649 5642 5632 5624 5619 5614 5607 5600 5596 5590 5583 5577 5570 5563 5558 5553
5610 5623 5613 5602 5614 5639 5614 5642 5696 5712 5717 5720 5721 5725 5727 5725 5723 5720 5722 5718 5713 5706 5700 5694 5688 5685 5679 5674 5667 5658 5654 5651 5649 5642 5637 5632 5625 5617 5610 5602 5596 5591 5585 5579 5572 5565 5557 5551 5545
5601 5597 5631 5603 5595 5591 5637 5678 5701 5702 5697 5701 5713 5718 5718 5717 5717 5713 5715 5712 5704 5696 5692 5687 5681 5672 5669 5665 5660 5654 5649 5645 5643 5636 5630 5625 5623 5614 5606 5598 5592 5585 5578 5573 5566 5559 5551 5544 5540
5601 5612 5588 5589 5581 5585 5632 5649 5672 5692 5695 5702 5694 5699 5702 5702 5703 5703 5703 5702 5695 5689 5683 5677 5673 5666 5659 5656 5651 5647 5644 5639 5635 5629 5625 5618 5613 5607 5599 5591 5584 5577 5571 5565 5558 5551 5544 5538 5531
5584 5585 5590 5600 5598 5595 5602 5641 5693 5691 5686 5684 5685 5682 5680 5682 5684 5687 5685 5680 5678 5671 5669 5666 5662 5656 5650 5645 5642 5637 5635 5631 5627 5623 5618 5611 5606 5598 5589 5581 5574 5569 5563 5556 5548 5541 5534 5528 5521
5592 5598 5594 5580 5588 5586 5588 5623 5683 5677 5669 5665 5666 5671 5669 5662 5664 5666 5663 5660 5658 5658 5655 5654 5651 5647 5640 5636 5632 5631 5627 5622 5618 5615 5609 5602 5596 5589 5580 5570 5564 5558 5553 5548 5540 5532 5525 5519 5510